COSMOS 1455 (14032 NORAD) Tracking and Keplerian Element Data

This shows tracking and keplerian element data for the satellite.

Feedback or suggestion? Click here.




ElementValue
Catalog14032
NameCOSMOS 1455
Epoch Orbit11532
Epoch Day16.05220609
Epoch Year2022
RAAN231.7292
Inclination82.5139
Eccentricity0.0015487
Argument of Perigee211.8735
Mean Anonmoly148.1564
Mean Motion15.19430861
Decay Rate2.335E-05
L11 14032U 83037A 22016.05220609 .00002335 00000+0 10840-3 0 9994
L22 14032 82.5139 231.7292 0015487 211.8735 148.1564 15.19430861115327

Live tracking and technical data element details for COSMOS 1455 (NORAD 14032). COSMOS 1455 can be tracked NOW for your location showing map with azimuth and elevation plus other details from your city location.

Track the satellite on the map from your city or location and see movement details for azimuth, elevation, latitude, longitude, range, height, and movement on the map or in text.







IsCatalogInMostPopularTable: catalog: 14032, numindb: 298
Update: records affected: 1



GetName: 14032 COSMOS 1455

Hit Count: updated at: Mon, 17 Jan 2022 01:11:21 GMT